Temperature
17 17 17 18 14 11 13 13 12 12 12 11 12 11 11 11 11 12 11 11 11 11 11 11 11 12 12 12 12 13 13 13 13 13 13 13 13 13 14 14 14 14 14 13 14 14 14 14 14
17 17 17 16 12 13 13 12 12 12 12 11 11 11 10 10 10 10 11 11 11 11 11 11 11 11 11 12 12 12 12 12 13 13 13 13 13 13 13 13 13 13 13 13 13 13 13 13 14
16 17 17 11 11 12 13 12 11 11 11 11 10 10 10 9 10 10 10 11 11 11 11 11 11 11 11 11 12 12 12 12 12 13 13 13 13 13 13 13 13 13 13 13 13 13 13 13 13
16 17 15 10 12 11 11 11 10 10 11 11 10 9 9 9 9 10 10 10 10 11 11 11 11 11 11 11 11 12 12 12 12 12 12 13 13 13 13 13 13 13 13 13 13 13 13 13 13
16 16 11 10 11 10 10 10 11 10 9 9 9 8 8 9 9 10 10 10 10 10 10 11 11 11 11 11 11 12 12 12 12 12 12 12 12 12 12 12 12 13 13 13 12 13 13 13 13
16 11 10 11 11 10 10 10 10 9 9 9 9 8 8 9 9 10 10 10 10 10 10 10 10 10 11 11 11 11 12 12 12 12 12 12 12 12 12 12 12 12 12 12 12 12 12 13 13
13 9 10 11 10 10 10 10 10 9 8 9 9 8 8 9 9 9 9 9 9 9 10 10 10 10 10 11 11 11 11 11 12 12 12 12 12 12 12 12 12 12 12 12 12 12 12 12 12
13 8 9 9 10 10 10 10 10 10 9 9 9 8 8 9 9 9 9 9 9 9 9 9 9 10 10 10 10 11 11 11 11 11 11 11 12 12 12 12 12 12 12 12 12 12 12 12 12
13 9 9 9 9 10 9 9 9 9 9 8 8 8 8 9 9 9 9 9 9 9 9 9 9 9 10 10 10 10 10 10 11 11 11 11 11 11 11 11 11 11 11 11 11 11 11 12 12
11 8 10 9 9 9 8 8 8 8 7 7 7 8 8 8 8 8 9 9 9 9 9 9 9 9 9 9 10 10 10 10 10 11 11 11 11 11 11 11 11 11 11 11 11 11 11 11 11
8 8 8 8 8 9 8 8 8 7 6 7 8 8 8 8 8 8 8 8 8 8 8 8 8 8 9 9 9 9 10 10 10 10 10 10 10 10 10 10 10 10 10 11 10 10 11 11 11
7 6 7 8 8 8 8 7 7 6 8 8 8 8 8 8 8 8 8 8 8 8 8 8 8 8 8 8 9 9 9 9 9 9 10 10 10 10 10 10 10 10 10 10 10 10 10 10 10
6 6 7 7 8 7 7 6 6 6 8 8 8 8 8 8 8 7 7 7 7 8 8 8 8 8 8 8 8 8 8 9 9 9 9 9 9 9 9 9 9 9 9 9 9 10 10 10 10
6 6 6 7 7 7 6 5 5 6 7 7 7 7 7 7 7 7 7 7 7 7 7 7 7 7 7 7 8 8 8 8 8 8 8 8 9 9 9 9 9 9 9 9 9 9 9 9 9
7 6 6 6 6 6 6 6 4 7 7 6 6 6 6 6 6 6 6 6 7 7 7 7 7 7 7 7 7 7 7 7 8 8 8 8 8 8 8 8 8 8 8 8 8 8 9 9 9
6 6 7 6 5 6 6 6 6 6 6 5 6 6 5 5 6 6 6 6 6 6 6 6 6 6 6 6 7 7 7 7 7 7 7 7 7 7 7 7 8 8 8 8 8 8 8 8 8
5 6 6 6 5 4 5 5 4 5 4 4 5 5 5 5 5 5 5 5 5 6 6 6 6 6 6 6 6 6 6 6 6 7 7 7 7 7 7 7 7 7 7 7 7 7 8 8 8
6 6 6 6 4 4 3 3 3 4 4 3 4 4 4 5 5 5 5 5 5 5 5 5 5 5 5 5 5 5 5 6 6 6 6 6 6 6 6 6 6 7 7 7 7 7 7 7 7
5 5 5 5 4 3 3 3 4 3 3 2 2 3 4 4 5 5 5 5 5 5 5 5 5 5 5 5 5 5 5 5 5 5 5 5 5 6 6 6 6 6 6 6 6 6 6 6 7
5 5 4 4 4 3 2 2 3 2 2 3 2 2 3 3 4 4 4 4 5 5 5 5 4 4 4 4 4 4 4 5 5 5 5 5 5 5 5 5 5 5 5 6 6 6 6 6 6
4 4 4 4 3 3 2 3 3 3 2 2 2 2 2 3 3 3 4 4 4 4 4 4 4 4 4 4 4 4 4 4 4 4 4 4 4 4 4 4 5 5 5 5 5 5 5 5 5
4 4 3 3 3 2 2 3 3 2 1 1 1 2 2 2 3 3 3 3 3 3 3 3 3 3 3 3 3 3 3 3 3 4 4 4 4 4 4 4 4 4 4 4 4 4 4 4 4
3 3 2 2 1 1 1 2 3 1 2 1 1 1 2 2 2 2 3 3 3 3 3 3 3 3 3 3 3 2 2 3 3 3 3 3 3 3 3 3 3 3 4 4 4 4 4 4 4
2 2 1 0 1 2 1 1 2 1 1 1 1 1 2 2 2 2 2 3 3 3 3 3 3 2 2 2 2 2 2 2 2 2 2 3 3 3 3 3 3 3 3 3 3 3 3 3 3
2 2 2 2 2 2 1 1 1 1 0 -0 -0 1 1 1 2 2 2 2 2 2 2 2 2 2 2 2 2 1 2 2 2 2 2 2 2 2 3 3 3 2 2 2 3 3 3 3 3
1 2 3 3 3 2 0 0 1 0 -0 -0 -0 0 1 1 1 1 1 2 2 2 2 2 2 2 2 1 1 1 1 1 1 1 1 1 1 2 2 2 2 2 2 2 2 2 2 2 2
1 0 1 1 -0 0 1 -1 -0 -0 -1 -1 -1 -1 -0 1 1 1 1 1 1 1 1 1 1 1 1 1 1 1 1 1 1 1 0 0 1 1 1 1 2 1 1 1 1 1 2 2 2
0 -1 -1 0 2 2 1 0 1 0 -0 -1 -2 -2 -1 0 0 1 1 1 1 1 1 1 1 0 0 0 0 0 0 0 -0 -0 -0 -0 0 0 0 1 1 1 1 1 1 1 1 1 1
-1 -1 -1 -1 -0 1 1 1 -0 -1 -1 -2 -2 -1 -1 -0 -0 -0 0 -0 -0 0 0 0 0 0 -0 -0 -0 -0 -0 -1 -1 -1 -1 -1 -1 -0 -0 -0 -0 0 0 0 0 0 0 0 0
-1 -1 -1 0 -0 -2 -1 1 -1 -2 -2 -2 -2 -1 -1 -1 -0 -0 -0 -1 -1 -1 -0 -0 -0 -1 -1 -1 -1 -1 -1 -1 -1 -1 -1 -1 -1 -1 -1 -1 -1 -1 -0 -0 -1 -0 -0 -0 -0
Wind_Speed
9 5 3 4 6 5 2 3 2 2 1 0 1 2 5 4 3 2 1 2 3 3 4 4 4 6 7 7 8 8 7 8 9 9 9 9 9 10 11 11 11 11 11 12 13 13 13 14 14
4 3 5 5 5 1 4 3 4 3 3 3 3 3 4 1 1 1 1 3 3 4 5 5 6 7 7 8 8 8 8 8 9 9 9 9 9 9 10 10 10 11 11 12 12 12 13 13 13
2 4 5 5 4 6 5 4 4 1 2 3 3 3 2 1 1 1 1 1 4 5 5 5 7 7 8 8 8 8 9 9 9 8 8 9 9 9 9 9 10 10 11 11 11 11 12 12 12
3 5 6 4 3 4 3 2 3 3 2 3 3 2 0 1 1 1 1 2 4 5 6 6 7 7 8 8 9 8 8 8 9 9 9 8 9 9 9 9 9 9 9 10 10 10 11 11 11
4 5 4 1 3 2 2 1 4 3 3 1 3 3 1 1 2 3 3 3 4 4 6 6 7 7 7 7 8 8 8 8 8 8 9 9 8 9 8 8 8 8 8 8 9 10 10 10 10
5 5 4 4 4 2 2 2 3 3 2 2 4 3 2 1 2 2 3 4 4 4 6 6 6 7 7 7 7 7 7 8 8 8 8 8 8 8 8 8 8 7 8 8 8 9 9 9 9
5 5 4 5 3 3 3 3 4 4 3 3 4 4 1 1 0 2 3 4 4 5 6 6 6 6 6 7 7 7 7 7 7 8 8 8 8 7 8 7 7 7 8 8 8 8 8 8 8
5 5 3 3 4 4 2 3 2 4 3 2 4 5 3 3 1 3 4 3 3 4 5 5 6 6 6 6 7 8 7 7 7 8 9 8 8 7 7 7 7 7 7 8 8 8 8 8 8
4 4 3 5 6 4 2 3 1 2 4 2 1 1 1 4 5 5 3 2 2 3 4 4 5 5 5 5 6 6 7 6 7 7 8 8 7 6 6 7 6 6 7 7 7 8 8 8 7
4 4 5 2 3 3 2 3 3 3 2 1 1 1 3 5 6 5 3 1 0 1 2 3 4 4 4 3 4 4 5 5 5 5 6 6 6 5 5 6 6 6 6 6 6 7 7 7 6
3 4 2 0 0 2 2 1 2 5 3 5 5 3 4 5 4 4 3 2 2 1 1 2 3 3 3 3 3 3 3 4 4 4 4 5 5 5 5 5 5 6 6 6 6 6 6 6 5
3 0 1 0 1 1 2 2 1 3 4 1 4 6 6 6 6 5 4 3 1 1 1 1 2 2 2 2 1 2 2 2 2 2 3 3 3 3 3 4 4 4 4 5 5 4 5 5 4
2 1 0 0 1 1 2 1 2 3 3 1 4 6 6 6 5 3 3 2 1 1 2 2 1 1 1 1 1 1 1 1 1 1 1 2 2 1 2 2 2 3 3 3 3 3 3 3 3
1 1 0 1 0 1 2 2 1 5 1 3 3 4 5 5 5 3 2 2 2 2 3 2 1 1 1 1 1 1 0 1 1 1 1 0 0 0 1 1 1 2 2 2 1 2 1 1 1
2 2 2 1 1 1 1 4 5 4 3 2 2 3 3 4 3 4 4 4 4 3 3 2 2 1 1 1 1 1 1 1 1 1 2 2 1 1 0 1 1 1 0 1 1 2 2 1 2
2 2 2 2 1 1 2 7 4 2 4 3 3 3 3 3 3 4 3 3 3 3 3 3 2 1 2 1 1 1 1 1 1 2 2 2 2 2 1 1 1 1 0 1 1 1 1 1 1
3 1 4 4 1 1 3 7 4 1 3 3 3 3 3 3 3 3 3 3 3 4 3 3 2 2 2 2 1 1 1 1 1 2 1 2 2 2 2 1 2 1 0 0 0 0 0 1 1
4 3 4 5 2 1 4 8 6 3 3 4 4 4 4 5 6 4 3 3 3 3 3 3 2 2 1 1 1 1 1 1 1 1 2 2 2 2 1 1 1 1 0 1 0 1 1 1 1
3 3 5 5 1 2 6 10 10 4 3 5 5 5 5 6 4 2 2 2 1 2 2 2 2 1 0 1 1 2 2 2 1 2 2 2 2 2 1 1 1 1 2 2 2 1 1 1 1
2 3 5 4 1 2 5 9 9 5 5 5 5 5 5 4 3 2 2 1 1 2 3 2 3 2 2 2 2 2 2 2 2 2 2 2 2 2 3 2 2 2 2 2 2 1 1 1 0
3 4 5 4 3 2 4 7 5 3 2 2 3 3 3 4 4 4 3 2 2 2 3 3 3 2 3 1 0 1 1 1 1 2 2 2 3 3 3 3 3 3 3 3 3 3 3 2 2
5 3 3 3 1 4 0 5 6 3 3 3 4 3 3 3 3 3 3 3 3 3 3 2 2 2 2 1 1 1 1 2 3 2 2 3 3 3 3 4 4 4 3 4 5 4 3 4 3
3 1 1 2 3 2 1 3 7 2 4 5 5 4 4 3 3 3 3 3 3 2 2 2 2 2 1 2 2 2 2 2 2 2 3 3 3 3 3 4 4 4 4 4 4 4 4 4 4
1 2 3 3 3 3 4 5 7 3 4 4 4 4 4 3 3 3 3 2 2 2 1 1 1 2 1 2 2 3 3 2 2 3 3 3 3 3 3 4 4 5 4 5 5 5 6 5 5
2 3 3 3 2 6 2 4 8 5 3 3 4 5 4 3 2 3 3 3 3 2 2 1 1 2 2 2 3 3 3 3 4 4 4 4 3 3 4 4 4 4 5 5 5 5 6 6 6
2 4 4 4 5 5 1 6 6 3 2 2 3 3 3 3 3 3 3 3 3 3 2 2 3 3 2 2 3 2 2 3 3 4 4 4 4 4 5 4 4 5 5 5 4 4 5 5 5
3 3 2 3 1 3 6 7 7 2 3 2 3 3 4 4 3 4 4 4 3 3 3 3 3 3 3 3 2 2 2 3 3 4 4 4 4 4 4 4 4 5 4 5 4 4 5 5 5
1 4 3 3 2 5 6 5 5 4 4 4 4 4 5 4 4 4 4 4 4 3 3 3 2 3 3 2 2 2 3 3 3 3 3 4 4 4 4 4 4 4 4 4 4 4 5 5 6
2 2 2 2 3 4 4 6 4 5 4 4 5 4 4 4 4 4 4 4 4 3 3 2 3 3 3 2 2 2 3 3 3 3 3 4 4 4 4 4 4 4 4 4 4 4 4 5 6
3 4 5 4 4 4 4 7 3 3 3 3 5 5 3 3 4 4 4 4 3 4 3 3 3 3 3 2 2 2 3 3 3 3 4 4 4 4 4 4 4 4 4 4 5 5 5 5 6
Wind_Direction
346 14 63 56 58 56 201 225 179 151 157 80 89 109 130 137 151 169 344 18 22 14 9 8 40 60 59 56 56 59 61 63 62 68 71 70 77 77 77 75 74 73 73 73 73 72 73 72 71
354 32 54 61 96 146 250 218 188 187 161 112 66 74 95 111 44 85 356 344 22 29 35 32 57 60 56 55 55 56 59 62 63 66 71 71 77 78 77 76 74 73 73 73 74 74 74 74 72
27 49 80 81 128 184 207 204 194 121 107 104 90 60 118 158 144 170 299 356 38 38 41 47 60 57 54 51 51 52 53 57 60 62 67 70 71 74 76 76 74 73 72 72 73 75 75 75 74
70 49 58 84 187 211 204 199 164 129 79 66 117 102 103 32 178 197 60 66 66 41 43 51 57 56 54 51 49 47 49 55 58 58 60 65 67 69 71 74 73 74 74 75 74 77 76 74 73
57 77 74 71 228 241 236 210 155 146 154 114 131 142 188 16 59 97 101 88 86 52 47 52 57 53 50 49 47 46 45 51 56 57 56 58 63 64 66 70 70 73 76 80 78 78 78 76 72
57 72 111 211 227 243 243 192 141 140 145 134 138 145 201 65 86 113 114 104 84 69 51 53 56 54 50 46 44 45 46 51 51 53 54 55 58 62 60 63 66 70 74 79 80 78 78 78 75
106 107 165 190 199 234 220 160 154 158 165 193 164 147 238 270 147 121 113 102 78 67 55 46 50 50 47 47 43 41 48 55 53 50 50 51 52 58 59 56 62 67 69 71 74 76 76 80 80
116 111 134 188 195 230 187 152 159 158 174 135 141 158 221 229 152 106 95 92 81 64 49 38 40 44 42 42 41 39 42 50 54 52 50 47 46 48 54 52 58 63 67 69 69 71 73 76 79
89 90 195 206 194 215 159 147 83 81 111 109 149 187 236 129 123 112 90 69 60 44 30 25 26 31 36 41 41 39 39 43 52 52 52 50 47 48 49 48 53 59 63 68 68 66 68 70 74
84 158 211 197 191 184 166 163 153 118 112 184 262 26 88 119 134 137 137 161 258 341 356 14 16 16 26 36 39 43 42 40 47 52 50 49 47 46 49 50 50 54 60 63 64 64 63 61 64
106 169 190 181 284 141 152 154 149 147 205 215 207 191 142 142 154 163 176 190 218 244 332 360 4 4 18 24 33 38 42 37 43 47 45 48 47 41 43 46 43 48 55 54 55 56 53 56 61
116 90 133 185 20 135 168 157 171 189 218 218 186 159 156 166 182 190 192 208 223 245 280 331 356 0 7 16 19 35 35 28 27 32 43 50 45 33 29 40 40 46 52 48 48 47 42 45 54
128 177 35 40 74 132 112 181 216 249 256 65 106 136 166 180 193 199 192 195 208 239 274 299 322 351 355 13 351 17 15 359 350 341 32 60 51 15 13 28 43 41 51 54 44 44 36 31 33
149 121 22 1 100 105 148 265 233 256 182 125 138 171 186 192 194 196 206 218 229 248 264 277 293 301 320 339 322 298 282 276 301 315 295 208 131 340 354 6 24 29 39 49 53 41 37 20 19
104 70 356 279 201 182 123 285 232 235 140 158 193 201 205 213 205 212 218 225 231 243 256 260 262 274 278 279 270 293 272 241 265 285 287 259 231 229 220 337 330 322 24 53 50 36 37 26 9
72 56 293 274 166 185 160 259 256 178 154 209 235 237 234 238 229 235 235 236 240 241 246 249 261 262 256 267 269 274 271 251 252 259 276 278 256 238 219 275 295 291 172 101 89 68 10 339 328
39 259 256 279 194 117 183 249 260 185 175 230 247 248 247 261 270 261 249 239 235 232 236 242 246 246 254 266 269 275 277 272 258 247 258 271 264 239 224 244 277 279 98 76 224 354 303 281 309
231 235 252 255 279 163 232 253 262 245 224 248 256 257 256 255 258 265 257 247 239 235 234 237 243 249 279 313 323 327 326 313 285 259 252 265 269 256 244 248 280 226 146 221 234 240 293 251 280
176 205 251 259 274 226 245 263 269 252 242 255 259 255 257 261 274 285 275 270 256 245 234 224 232 243 216 252 263 269 271 286 286 280 266 237 237 243 251 261 285 235 213 220 213 243 226 285 325
184 237 266 282 300 244 276 277 273 244 234 233 239 246 250 268 298 300 290 287 256 246 240 231 227 226 222 236 233 242 256 259 270 292 282 264 252 235 231 244 250 241 227 222 218 188 200 257 183
230 217 241 261 329 336 324 296 272 264 238 250 238 243 255 251 265 278 281 265 264 265 254 242 235 230 224 228 338 343 349 336 304 303 298 295 272 257 247 237 242 235 217 220 223 209 196 212 232
248 236 241 253 303 287 9 284 281 269 292 283 275 271 262 262 266 275 279 277 267 262 267 254 234 230 222 188 195 197 231 253 260 270 282 295 283 267 257 253 240 235 224 224 226 221 216 200 219
224 302 228 225 187 282 277 230 282 313 287 287 287 278 272 262 254 262 267 263 270 269 262 253 236 230 215 187 196 205 241 258 284 295 288 289 290 281 272 262 250 241 230 226 228 222 220 213 215
132 62 57 62 91 263 226 196 275 244 237 280 306 304 290 273 264 268 285 302 309 325 323 315 275 262 231 209 214 218 237 261 290 296 284 288 289 286 287 275 260 252 240 230 228 226 218 221 219
67 81 13 350 325 254 183 205 249 252 232 231 279 304 305 302 292 296 309 312 311 316 315 304 284 278 262 232 234 236 238 235 242 261 266 280 284 281 278 276 266 259 250 243 233 228 223 219 217
200 154 169 218 243 280 262 236 250 246 264 262 276 298 324 331 323 311 302 295 293 296 297 297 287 286 282 259 262 264 261 243 252 259 261 261 264 269 275 274 272 270 260 254 243 229 232 225 222
153 195 176 148 219 276 266 279 299 282 318 333 329 335 322 323 320 309 310 304 294 292 286 275 280 288 287 277 279 280 274 262 257 261 260 264 273 278 276 276 277 274 268 259 250 238 234 229 232
130 145 112 146 204 262 282 273 261 281 290 312 321 314 308 318 318 316 313 306 298 289 285 287 279 276 278 277 275 279 279 273 262 257 265 269 275 276 272 272 270 270 267 261 251 250 244 232 238
132 132 150 156 179 197 268 271 229 225 241 266 282 288 289 301 307 311 314 314 312 315 314 310 302 302 301 299 300 310 305 296 288 273 273 270 277 269 263 264 263 264 264 258 252 250 251 245 244
186 186 165 187 230 201 227 268 270 229 252 254 275 287 295 297 306 309 312 322 327 324 324 318 312 312 311 314 323 321 316 313 310 300 290 285 280 274 266 265 264 265 266 261 250 253 254 246 250
Height
1497 1498 1500 1502 1507 1521 1523 1520 1518 1519 1519 1519 1519 1520 1522 1524 1528 1532 1529 1527 1528 1529 1530 1531 1532 1533 1534 1534 1535 1535 1536 1536 1536 1537 1537 1537 1538 1538 1538 1538 1538 1539 1539 1539 1539 1539 1540 1540 1540
1497 1499 1501 1502 1515 1526 1523 1519 1518 1517 1518 1518 1519 1520 1521 1523 1524 1525 1525 1526 1528 1529 1530 1531 1532 1533 1534 1534 1535 1535 1535 1536 1536 1537 1537 1537 1538 1538 1538 1538 1539 1539 1539 1540 1540 1540 1540 1540 1541
1497 1499 1501 1507 1518 1522 1517 1516 1516 1517 1517 1517 1519 1520 1522 1523 1524 1524 1525 1526 1527 1529 1530 1531 1532 1532 1533 1534 1534 1535 1535 1536 1536 1536 1537 1537 1537 1538 1538 1539 1539 1539 1539 1540 1540 1540 1541 1541 1541
1498 1500 1502 1512 1516 1517 1515 1514 1515 1516 1517 1518 1519 1521 1522 1523 1523 1524 1525 1526 1527 1528 1529 1530 1531 1532 1532 1533 1534 1534 1535 1535 1536 1536 1536 1537 1537 1538 1538 1538 1539 1539 1540 1540 1540 1540 1541 1541 1541
1498 1499 1509 1518 1517 1515 1514 1513 1514 1515 1517 1518 1519 1520 1521 1523 1523 1524 1524 1525 1526 1528 1529 1529 1530 1531 1531 1532 1533 1533 1534 1535 1535 1536 1536 1536 1537 1537 1538 1538 1539 1539 1540 1540 1540 1540 1541 1541 1541
1499 1501 1516 1518 1515 1514 1513 1513 1514 1515 1517 1518 1519 1520 1520 1522 1522 1523 1524 1525 1526 1527 1528 1528 1529 1530 1530 1531 1532 1532 1533 1533 1534 1535 1535 1536 1536 1537 1537 1538 1538 1539 1539 1540 1540 1540 1541 1541 1541
1499 1507 1514 1514 1515 1514 1512 1512 1513 1514 1516 1517 1518 1519 1519 1520 1521 1522 1523 1525 1526 1526 1527 1528 1528 1528 1529 1530 1531 1531 1532 1533 1533 1534 1534 1535 1536 1536 1537 1537 1538 1538 1539 1539 1540 1540 1540 1541 1541
1499 1506 1513 1516 1514 1512 1510 1511 1512 1513 1514 1516 1517 1518 1518 1519 1520 1521 1522 1523 1525 1525 1526 1527 1527 1527 1528 1528 1529 1530 1531 1531 1532 1533 1533 1534 1535 1535 1536 1537 1537 1538 1538 1539 1539 1539 1540 1540 1541
1499 1509 1514 1513 1512 1509 1509 1510 1512 1512 1513 1515 1515 1516 1517 1518 1518 1520 1520 1521 1523 1524 1524 1525 1526 1526 1527 1527 1528 1529 1530 1530 1531 1532 1532 1533 1534 1534 1535 1536 1536 1537 1537 1538 1538 1539 1539 1540 1540
1500 1510 1508 1508 1508 1508 1508 1509 1510 1512 1513 1514 1514 1514 1515 1516 1517 1517 1518 1518 1519 1521 1522 1523 1524 1525 1525 1526 1526 1527 1528 1529 1529 1530 1531 1532 1532 1533 1534 1535 1535 1536 1536 1537 1538 1538 1539 1539 1540
1501 1507 1506 1507 1506 1507 1508 1509 1510 1511 1512 1511 1511 1512 1512 1514 1514 1515 1516 1517 1518 1519 1520 1521 1522 1523 1523 1524 1524 1525 1526 1527 1528 1528 1529 1530 1531 1531 1532 1533 1534 1534 1535 1536 1536 1537 1537 1538 1538
1504 1506 1505 1506 1506 1507 1508 1509 1510 1509 1509 1509 1510 1510 1510 1511 1512 1512 1513 1515 1516 1517 1518 1519 1520 1521 1521 1522 1522 1523 1524 1525 1525 1526 1527 1528 1529 1530 1530 1531 1532 1533 1533 1534 1534 1535 1536 1537 1537
1504 1505 1505 1505 1506 1507 1507 1508 1509 1507 1507 1508 1508 1508 1508 1509 1510 1511 1513 1513 1514 1515 1516 1517 1518 1518 1519 1520 1520 1521 1522 1523 1523 1524 1525 1526 1527 1527 1528 1529 1530 1531 1531 1532 1533 1533 1534 1535 1535
1504 1505 1505 1505 1506 1506 1507 1508 1508 1504 1505 1506 1506 1506 1507 1507 1508 1509 1510 1510 1511 1512 1513 1514 1515 1516 1516 1517 1518 1518 1519 1520 1521 1522 1523 1523 1524 1525 1526 1527 1527 1528 1529 1530 1531 1531 1532 1532 1533
1504 1505 1506 1505 1505 1506 1507 1507 1505 1502 1503 1504 1504 1505 1505 1505 1506 1506 1507 1508 1509 1510 1511 1512 1512 1513 1514 1514 1515 1516 1517 1518 1518 1519 1520 1521 1521 1522 1523 1524 1525 1526 1527 1528 1528 1529 1530 1530 1531
1505 1507 1508 1504 1505 1505 1509 1507 1502 1501 1501 1501 1502 1502 1503 1503 1504 1505 1506 1506 1507 1508 1508 1509 1510 1510 1511 1512 1512 1513 1514 1515 1515 1516 1517 1518 1519 1519 1520 1521 1522 1523 1524 1525 1526 1526 1527 1528 1528
1509 1510 1508 1506 1505 1505 1507 1505 1501 1500 1500 1500 1500 1500 1501 1501 1502 1503 1503 1504 1505 1505 1506 1506 1507 1507 1508 1508 1509 1510 1511 1511 1512 1513 1514 1515 1515 1516 1517 1518 1519 1520 1521 1522 1523 1523 1524 1525 1525
1510 1510 1509 1507 1505 1506 1507 1503 1499 1498 1498 1498 1498 1498 1498 1498 1499 1500 1501 1501 1502 1503 1503 1503 1504 1504 1505 1505 1506 1507 1507 1508 1509 1510 1510 1511 1512 1513 1514 1515 1516 1517 1517 1518 1519 1520 1521 1522 1522
1507 1509 1509 1506 1505 1506 1505 1501 1496 1496 1496 1495 1495 1495 1495 1495 1497 1497 1498 1498 1499 1499 1500 1500 1500 1501 1501 1502 1502 1502 1503 1504 1505 1506 1507 1508 1508 1509 1510 1511 1512 1513 1514 1515 1516 1517 1517 1518 1519
1506 1508 1509 1506 1505 1506 1505 1500 1493 1492 1492 1491 1491 1491 1491 1492 1493 1494 1494 1495 1495 1496 1496 1496 1497 1497 1498 1499 1499 1499 1500 1500 1501 1502 1503 1504 1504 1505 1506 1507 1508 1509 1509 1510 1512 1512 1513 1514 1516
1506 1508 1508 1508 1507 1506 1507 1497 1492 1489 1489 1489 1489 1489 1489 1490 1490 1490 1491 1491 1492 1492 1493 1493 1494 1494 1495 1496 1496 1496 1497 1497 1497 1498 1499 1499 1500 1501 1502 1503 1504 1504 1505 1506 1507 1508 1509 1510 1512
1505 1505 1506 1507 1510 1512 1510 1504 1491 1489 1488 1487 1486 1486 1486 1487 1487 1487 1488 1488 1489 1489 1490 1491 1491 1492 1492 1492 1492 1492 1492 1492 1493 1494 1495 1496 1496 1496 1497 1498 1499 1499 1500 1501 1502 1504 1505 1506 1507
1504 1505 1506 1507 1511 1514 1513 1511 1494 1491 1488 1485 1484 1484 1484 1485 1485 1485 1485 1486 1487 1487 1487 1488 1488 1489 1489 1489 1489 1489 1489 1489 1490 1490 1491 1491 1492 1492 1492 1493 1494 1494 1495 1496 1497 1499 1500 1501 1502
1505 1506 1508 1512 1514 1511 1509 1511 1496 1493 1487 1485 1483 1482 1482 1482 1483 1483 1484 1484 1484 1484 1485 1485 1485 1485 1485 1485 1486 1486 1486 1485 1486 1486 1486 1487 1487 1487 1488 1488 1488 1489 1489 1490 1492 1493 1495 1496 1497
1506 1509 1511 1510 1515 1508 1508 1508 1497 1486 1485 1484 1483 1482 1481 1481 1481 1481 1481 1481 1481 1481 1482 1482 1482 1482 1482 1482 1482 1482 1482 1482 1482 1482 1482 1482 1482 1482 1482 1483 1483 1484 1484 1485 1486 1488 1489 1491 1492
1507 1507 1509 1510 1509 1508 1510 1505 1490 1484 1483 1482 1482 1481 1480 1479 1479 1479 1479 1479 1480 1480 1479 1479 1479 1479 1479 1479 1478 1478 1478 1478 1478 1478 1478 1478 1478 1477 1478 1478 1478 1479 1479 1480 1481 1483 1484 1485 1486
1506 1509 1509 1514 1518 1516 1506 1501 1489 1482 1481 1481 1481 1480 1479 1479 1478 1478 1478 1478 1478 1478 1477 1477 1477 1476 1476 1475 1475 1475 1475 1475 1474 1474 1474 1474 1473 1473 1473 1473 1472 1473 1474 1475 1476 1477 1478 1480 1481
1506 1508 1513 1513 1510 1506 1501 1499 1491 1483 1481 1480 1480 1479 1478 1478 1477 1477 1477 1476 1476 1476 1475 1475 1474 1474 1473 1473 1472 1471 1471 1471 1471 1470 1469 1468 1468 1468 1468 1467 1467 1468 1468 1469 1470 1471 1473 1473 1474
1508 1510 1510 1513 1512 1510 1505 1493 1483 1482 1480 1480 1479 1478 1477 1477 1477 1476 1475 1475 1474 1473 1473 1472 1471 1471 1470 1469 1469 1468 1467 1467 1466 1465 1464 1463 1463 1463 1463 1463 1462 1463 1463 1464 1465 1465 1466 1467 1468
1506 1506 1508 1508 1510 1516 1511 1495 1480 1479 1478 1478 1478 1477 1477 1476 1476 1475 1474 1473 1472 1471 1470 1469 1468 1467 1467 1466 1465 1465 1464 1463 1462 1461 1460 1458 1458 1458 1457 1457 1456 1457 1457 1458 1459 1459 1459 1460 1461